Temp
21 21 21 21 26 27 28 28 27 27 27 24 24 26 27 26 27 26 16 15 16 16 17 18 17 17 17 17 16 16 16 16 17 17 17 17 16 16 16 16 16 16 16 16 14 15 16 16 16
21 21 20 24 26 27 29 28 27 27 25 22 22 23 24 26 20 17 15 15 15 15 16 18 17 17 17 17 17 16 17 17 17 16 16 16 16 16 16 16 16 15 16 15 15 15 15 16 16
21 21 24 26 26 27 28 27 27 26 23 23 23 22 23 24 19 17 15 15 15 15 15 18 18 17 17 17 17 17 17 17 16 16 16 16 16 16 16 15 15 15 15 15 15 15 15 15 15
20 21 22 25 26 27 27 27 27 26 24 23 23 24 19 17 17 15 15 15 15 15 17 18 18 17 17 17 17 16 16 16 16 16 15 15 15 15 15 15 15 15 14 14 14 14 15 15 15
21 23 26 26 26 26 26 26 25 25 26 25 23 24 22 16 16 15 15 15 15 17 17 17 17 17 17 16 16 16 16 16 16 15 15 15 15 15 15 15 15 15 15 15 15 15 15 15 15
24 24 25 26 27 26 26 25 24 25 25 24 23 23 21 15 16 15 15 15 16 17 17 17 16 16 16 16 16 16 16 16 15 15 15 14 14 14 14 14 14 14 14 14 14 14 14 14 14
24 25 25 26 25 25 26 24 25 25 24 24 22 24 19 15 15 16 15 15 15 17 16 16 16 16 16 16 15 15 16 15 15 15 14 15 14 14 14 14 14 14 14 14 14 14 14 14 14
23 25 25 25 25 25 25 24 24 24 25 20 21 25 24 16 16 15 15 15 16 16 15 15 16 15 15 15 15 15 15 15 15 15 15 15 15 15 14 14 14 14 14 14 14 14 14 14 14
21 24 25 25 24 25 24 25 23 22 23 21 21 20 19 16 15 15 14 15 15 14 14 15 15 16 15 15 15 15 15 15 15 15 15 15 15 15 15 15 14 14 15 14 14 14 14 14 14
23 24 25 25 25 25 24 24 23 24 24 24 22 19 17 16 16 15 15 14 13 12 13 14 15 15 15 15 15 16 15 15 16 16 16 16 15 16 16 15 15 15 14 14 14 14 14 14 12
23 23 25 24 23 23 23 23 23 24 25 25 24 23 18 16 14 15 15 14 13 13 14 15 15 15 15 15 16 16 16 16 16 16 16 16 15 16 15 15 15 15 14 14 14 14 15 14 14
22 23 23 23 21 21 23 22 22 22 24 23 22 21 19 17 16 14 15 14 14 13 15 15 15 15 15 15 15 16 16 16 16 15 16 15 15 15 15 15 14 14 14 14 14 14 14 14 15
21 23 22 21 20 21 21 21 22 22 22 22 22 20 20 18 18 16 15 15 15 13 13 15 15 15 15 15 15 15 15 15 15 15 15 15 15 15 14 14 14 14 14 14 14 14 14 14 14
21 20 21 21 21 21 21 22 22 22 22 22 22 21 21 20 19 18 16 16 15 13 12 14 15 15 15 14 15 15 15 15 14 15 15 15 15 14 14 14 14 14 14 13 14 14 14 13 14
19 19 21 22 22 22 21 22 22 22 20 20 20 20 20 21 20 19 17 16 15 13 12 13 14 15 14 14 14 14 14 14 14 14 14 14 14 14 13 13 13 13 13 13 13 13 13 13 13
19 20 20 23 21 21 20 22 25 20 20 21 20 20 20 20 19 19 18 16 15 14 12 13 14 14 14 13 14 14 14 14 14 13 13 13 14 14 14 14 13 13 13 12 12 12 12 12 12
20 20 22 22 22 21 21 22 23 20 20 21 21 21 20 20 20 18 18 16 15 13 11 12 14 14 13 13 13 13 13 13 13 12 13 13 13 13 12 12 12 13 12 12 12 12 12 11 10
22 21 20 19 22 20 20 21 22 21 21 21 20 21 20 20 20 19 17 15 15 13 11 11 13 13 13 13 12 12 12 12 12 11 12 11 12 12 12 11 11 11 11 11 11 11 11 11 10
20 20 20 21 21 20 20 20 21 21 21 20 20 21 21 21 21 19 17 15 14 12 10 11 13 13 12 11 10 10 10 10 10 10 11 11 11 10 10 10 10 11 11 11 11 11 10 10 10
18 18 19 20 20 18 19 20 21 21 22 21 21 21 21 22 21 19 17 14 12 12 10 10 11 12 11 10 9 8 8 8 8 10 10 10 10 10 10 10 10 10 10 10 10 10 7 9 9
17 17 18 18 19 19 19 20 22 22 20 20 20 20 20 20 20 20 16 13 12 11 10 10 10 11 10 9 8 7 6 6 6 8 9 9 9 9 9 9 9 10 10 10 10 10 9 6 8
17 19 18 17 17 17 20 18 21 21 21 20 18 16 15 14 15 17 17 13 12 12 10 10 9 9 8 8 8 8 7 6 5 5 7 8 8 8 8 8 8 8 9 9 9 9 8 8 6
17 18 17 17 17 17 18 17 19 20 20 21 17 13 12 11 12 14 16 14 12 11 10 9 8 8 8 8 7 7 7 7 5 4 7 7 7 7 7 7 7 7 8 8 7 7 7 7 7
16 15 15 16 16 15 17 18 19 20 18 16 14 12 10 10 10 11 12 12 12 10 9 9 8 7 7 8 7 7 7 6 5 4 4 4 5 5 6 6 6 6 6 6 6 6 5 5 5
14 14 13 14 15 15 18 17 18 15 12 12 12 11 10 9 9 9 9 10 10 9 8 7 7 6 6 6 6 6 5 7 7 6 3 2 2 3 5 5 5 4 5 5 4 4 4 3 3
15 14 13 13 15 16 18 15 17 11 11 11 11 11 10 9 8 8 7 7 7 7 7 6 5 5 4 4 4 4 5 5 5 2 3 3 2 2 4 5 4 3 3 3 3 2 3 2 2
14 12 15 13 14 14 15 15 12 12 11 11 11 12 10 9 7 7 7 6 6 6 6 6 5 4 4 4 5 6 5 5 5 5 5 4 3 3 3 4 3 2 2 2 2 2 2 2 2
13 14 11 12 10 11 14 16 16 12 11 12 12 12 11 9 8 6 6 5 5 5 5 5 3 2 4 5 5 5 5 4 4 3 3 2 2 2 3 3 1 0 1 2 2 2 2 1 1
6 8 8 8 8 9 11 13 12 12 12 12 12 11 11 9 7 6 5 4 4 4 3 2 1 2 4 4 4 4 3 2 1 2 1 1 0 2 2 1 -0 1 0 1 1 1 0 -1 -1
10 9 8 5 7 7 8 10 11 11 11 11 11 11 10 8 7 5 4 3 3 2 1 0 -0 2 3 3 3 2 2 2 1 1 0 -0 -1 -0 0 -1 -1 -1 -1 -0 -0 -0 -1 -3 -5
Height
1509 1508 1508 1510 1505 1493 1483 1486 1486 1484 1485 1491 1492 1490 1488 1489 1486 1492 1499 1498 1502 1506 1508 1511 1515 1518 1520 1522 1523 1525 1527 1528 1530 1531 1531 1531 1531 1531 1531 1531 1532 1532 1532 1532 1532 1532 1532 1532 1531
1508 1508 1508 1505 1498 1490 1477 1480 1483 1486 1489 1492 1493 1493 1492 1488 1495 1496 1498 1499 1502 1505 1508 1511 1515 1517 1519 1521 1523 1525 1526 1528 1529 1530 1531 1531 1531 1531 1531 1531 1531 1532 1532 1531 1532 1532 1532 1532 1531
1507 1507 1505 1495 1491 1490 1480 1484 1483 1488 1491 1491 1491 1493 1492 1490 1496 1496 1497 1498 1502 1505 1508 1510 1513 1516 1518 1520 1522 1524 1525 1526 1528 1529 1530 1530 1530 1530 1531 1531 1531 1531 1531 1532 1531 1531 1531 1531 1531
1507 1507 1505 1496 1487 1484 1484 1483 1486 1487 1489 1491 1490 1489 1493 1493 1495 1494 1496 1499 1501 1505 1507 1509 1512 1515 1517 1520 1522 1523 1524 1525 1527 1528 1529 1529 1530 1529 1530 1530 1530 1530 1530 1530 1530 1529 1529 1529 1529
1505 1501 1492 1488 1486 1486 1486 1487 1489 1487 1486 1487 1489 1485 1490 1492 1494 1493 1495 1499 1501 1503 1506 1509 1512 1515 1517 1518 1521 1522 1523 1525 1526 1527 1528 1529 1529 1529 1529 1529 1529 1529 1529 1529 1529 1528 1528 1528 1528
1499 1497 1489 1483 1480 1486 1486 1489 1488 1486 1486 1486 1488 1488 1490 1490 1491 1492 1495 1499 1501 1503 1505 1508 1511 1514 1516 1518 1520 1521 1523 1524 1525 1526 1527 1528 1528 1529 1528 1527 1528 1528 1527 1527 1527 1527 1526 1527 1527
1497 1490 1485 1481 1486 1485 1482 1488 1486 1485 1485 1485 1487 1484 1489 1489 1490 1492 1495 1498 1500 1502 1504 1507 1509 1512 1514 1517 1518 1520 1522 1523 1525 1526 1527 1526 1526 1528 1528 1527 1527 1527 1526 1526 1525 1525 1525 1525 1526
1496 1492 1485 1482 1482 1483 1483 1486 1487 1485 1481 1487 1488 1480 1482 1487 1488 1491 1495 1497 1499 1501 1503 1505 1508 1510 1513 1515 1517 1518 1520 1522 1524 1525 1526 1527 1526 1526 1526 1527 1526 1526 1525 1525 1524 1523 1524 1524 1524
1496 1488 1482 1479 1483 1479 1484 1484 1487 1487 1485 1486 1486 1486 1487 1484 1486 1490 1492 1495 1498 1500 1502 1503 1506 1508 1510 1513 1515 1516 1518 1520 1522 1524 1525 1526 1525 1524 1525 1525 1525 1524 1524 1524 1523 1522 1522 1522 1521
1491 1480 1475 1478 1480 1481 1481 1484 1485 1484 1481 1482 1483 1485 1486 1484 1485 1488 1489 1492 1495 1498 1499 1502 1504 1506 1508 1510 1512 1514 1517 1518 1520 1521 1523 1524 1524 1524 1523 1523 1524 1523 1522 1522 1522 1521 1520 1520 1520
1485 1480 1473 1478 1481 1484 1484 1483 1483 1480 1477 1477 1479 1482 1484 1485 1486 1486 1488 1490 1494 1496 1497 1499 1502 1504 1506 1508 1509 1512 1515 1517 1518 1519 1521 1521 1522 1522 1523 1522 1522 1522 1522 1521 1520 1520 1519 1518 1518
1486 1480 1480 1478 1481 1482 1481 1482 1482 1480 1476 1478 1480 1480 1481 1481 1483 1483 1484 1488 1491 1490 1492 1495 1498 1500 1503 1505 1507 1510 1512 1515 1516 1518 1519 1520 1520 1521 1521 1521 1522 1521 1520 1520 1519 1518 1517 1517 1516
1485 1481 1480 1480 1480 1480 1479 1478 1479 1474 1476 1476 1478 1477 1477 1478 1480 1480 1482 1487 1488 1487 1488 1491 1493 1497 1500 1503 1505 1508 1510 1513 1514 1516 1517 1518 1519 1520 1520 1521 1521 1520 1519 1518 1518 1517 1517 1516 1515
1481 1483 1480 1478 1476 1476 1475 1472 1472 1468 1470 1470 1472 1474 1474 1475 1476 1478 1478 1481 1482 1485 1485 1486 1489 1493 1497 1501 1503 1505 1508 1510 1512 1514 1515 1516 1518 1519 1518 1519 1521 1520 1520 1518 1517 1517 1516 1516 1515
1484 1481 1473 1470 1469 1468 1470 1465 1463 1465 1468 1468 1469 1469 1469 1470 1471 1471 1472 1476 1479 1480 1482 1483 1486 1489 1494 1498 1501 1504 1506 1509 1511 1512 1513 1514 1515 1515 1518 1519 1519 1519 1520 1519 1518 1517 1516 1515 1514
1482 1476 1471 1460 1467 1466 1470 1459 1452 1461 1465 1464 1465 1465 1464 1464 1465 1466 1468 1470 1473 1476 1475 1477 1481 1485 1490 1494 1498 1500 1503 1505 1508 1510 1511 1511 1513 1514 1514 1516 1517 1518 1518 1519 1518 1518 1517 1515 1514
1470 1469 1461 1459 1460 1464 1465 1454 1452 1460 1460 1459 1459 1459 1459 1459 1459 1458 1461 1463 1467 1470 1471 1472 1476 1480 1486 1490 1494 1496 1499 1502 1504 1506 1507 1508 1509 1512 1513 1514 1515 1515 1517 1518 1517 1516 1516 1515 1513
1458 1456 1463 1466 1456 1462 1459 1455 1453 1453 1453 1452 1452 1451 1452 1452 1451 1453 1454 1457 1461 1465 1466 1469 1472 1476 1481 1485 1489 1492 1495 1497 1500 1502 1504 1507 1507 1509 1510 1512 1514 1514 1514 1514 1515 1515 1514 1513 1512
1460 1461 1461 1457 1455 1455 1453 1449 1445 1446 1447 1448 1446 1443 1441 1442 1443 1446 1448 1451 1454 1458 1461 1462 1466 1470 1474 1478 1482 1486 1489 1492 1495 1498 1501 1503 1505 1507 1508 1510 1511 1511 1512 1512 1513 1513 1512 1512 1511
1464 1462 1458 1453 1453 1457 1447 1434 1437 1439 1434 1436 1436 1434 1433 1433 1435 1439 1441 1443 1446 1450 1452 1456 1461 1464 1469 1474 1480 1484 1486 1489 1491 1494 1497 1500 1502 1504 1506 1507 1507 1509 1510 1509 1510 1510 1510 1509 1508
1456 1460 1459 1455 1452 1450 1444 1420 1419 1421 1430 1431 1431 1431 1431 1431 1432 1433 1437 1438 1442 1445 1447 1450 1454 1458 1464 1469 1474 1479 1483 1485 1488 1490 1493 1496 1500 1502 1504 1505 1505 1505 1506 1507 1508 1508 1508 1508 1507
1448 1444 1447 1454 1455 1449 1438 1429 1420 1417 1419 1425 1429 1432 1434 1434 1432 1430 1431 1434 1436 1440 1444 1447 1449 1452 1459 1464 1468 1470 1474 1480 1486 1489 1491 1493 1497 1499 1501 1502 1503 1504 1503 1504 1505 1505 1506 1505 1504
1439 1449 1447 1447 1448 1444 1433 1442 1413 1412 1419 1415 1429 1435 1435 1432 1430 1427 1428 1429 1432 1435 1438 1441 1445 1448 1451 1455 1461 1465 1471 1477 1480 1484 1486 1490 1494 1496 1497 1499 1501 1502 1502 1501 1502 1503 1502 1504 1502
1448 1448 1450 1448 1447 1443 1415 1427 1404 1407 1414 1424 1430 1434 1435 1431 1428 1425 1425 1427 1429 1432 1434 1436 1438 1442 1447 1450 1456 1461 1465 1467 1473 1479 1484 1488 1490 1493 1495 1496 1497 1499 1499 1499 1498 1499 1501 1499 1500
1453 1451 1452 1444 1438 1426 1409 1417 1404 1417 1433 1436 1436 1434 1430 1430 1427 1425 1425 1425 1427 1429 1432 1435 1437 1439 1444 1449 1454 1461 1463 1465 1470 1477 1483 1487 1489 1491 1491 1493 1495 1496 1495 1494 1497 1496 1498 1499 1496
1438 1441 1444 1437 1423 1415 1406 1414 1403 1429 1432 1434 1435 1433 1430 1428 1429 1428 1424 1423 1425 1426 1428 1430 1433 1438 1440 1445 1450 1455 1460 1464 1468 1475 1481 1484 1488 1490 1490 1490 1492 1495 1494 1493 1495 1495 1494 1497 1496
1439 1441 1426 1434 1427 1423 1414 1412 1428 1427 1430 1434 1433 1430 1429 1426 1426 1428 1425 1420 1420 1424 1427 1429 1430 1433 1437 1440 1444 1450 1457 1463 1468 1473 1479 1484 1485 1489 1490 1488 1491 1492 1490 1491 1490 1494 1493 1495 1493
1443 1432 1437 1431 1436 1421 1402 1395 1391 1419 1428 1428 1428 1425 1426 1425 1422 1425 1425 1422 1419 1421 1424 1427 1429 1430 1431 1436 1443 1449 1454 1460 1465 1469 1475 1481 1483 1485 1486 1489 1490 1489 1489 1490 1489 1492 1492 1495 1494
1461 1448 1446 1444 1433 1424 1415 1401 1408 1415 1420 1423 1424 1423 1422 1424 1425 1422 1423 1421 1420 1420 1422 1426 1428 1427 1431 1434 1440 1446 1453 1459 1463 1467 1473 1479 1483 1482 1486 1488 1488 1487 1489 1490 1489 1489 1491 1493 1494
1446 1444 1443 1454 1438 1433 1426 1415 1417 1419 1421 1423 1421 1421 1421 1423 1425 1422 1422 1421 1420 1420 1422 1426 1427 1426 1431 1436 1441 1445 1450 1456 1462 1467 1471 1477 1481 1483 1483 1485 1487 1487 1488 1489 1487 1488 1491 1492 1494
Wind_Speed
4 3 1 3 7 6 7 6 1 2 2 2 2 4 6 8 3 2 6 13 20 21 23 21 18 15 15 14 14 14 13 11 11 10 9 8 7 6 6 6 5 5 5 4 5 4 3 4 3
6 2 2 4 7 8 6 6 5 4 4 3 4 6 6 6 2 6 8 12 22 21 21 21 19 17 16 15 14 13 12 11 10 9 8 7 6 6 5 5 5 5 4 4 4 5 4 3 3
5 2 7 4 5 10 5 5 4 7 1 5 4 4 2 2 4 10 9 17 23 20 20 21 21 18 17 15 13 12 10 9 8 7 6 5 4 4 5 5 5 5 5 6 6 5 5 5 5
2 3 5 8 11 4 4 2 6 7 6 7 6 4 3 2 9 9 16 20 24 23 22 21 19 18 16 14 13 12 10 9 8 7 7 7 7 6 6 6 6 6 7 6 6 7 7 6 7
4 5 8 10 9 5 4 3 5 7 8 7 10 4 3 4 8 13 19 23 24 24 23 20 19 17 16 15 13 11 10 9 9 8 8 7 6 6 6 6 6 6 6 7 7 8 8 8 8
10 5 9 11 6 5 4 1 4 6 7 6 9 5 3 7 10 15 20 22 22 23 22 21 19 18 16 14 13 11 10 9 9 9 7 6 6 6 6 5 6 6 6 6 7 8 8 9 9
12 7 12 10 9 9 6 0 4 5 4 8 4 11 4 9 13 17 22 22 21 22 22 21 20 19 16 14 13 11 10 10 9 8 8 8 6 6 5 6 6 6 5 6 6 6 6 7 8
8 6 12 9 9 10 4 5 2 5 3 2 7 5 5 12 18 19 22 22 21 21 23 22 21 19 17 15 14 12 11 11 10 9 8 7 6 6 6 7 7 7 7 8 7 7 7 7 7
6 7 10 9 8 8 4 5 1 4 6 4 6 5 1 13 19 24 26 23 21 22 22 22 21 20 18 17 16 14 13 11 10 9 7 6 5 4 4 4 4 4 5 6 7 7 8 8 9
11 10 11 5 9 10 6 8 5 6 7 9 7 8 5 10 17 27 29 27 22 21 23 23 22 22 20 19 17 15 14 13 11 9 7 6 4 3 2 2 3 3 3 4 5 5 6 6 5
9 14 9 10 10 6 10 12 5 10 12 12 9 3 11 13 17 26 29 25 22 21 24 25 24 23 21 19 17 16 15 13 11 10 9 7 5 4 2 2 2 2 2 2 3 3 4 4 5
12 16 13 12 5 8 11 11 15 15 20 9 8 6 12 17 20 23 30 24 24 25 28 28 27 25 23 19 18 17 16 15 13 12 9 8 6 5 4 3 2 2 1 1 1 2 2 3 3
14 16 13 14 12 15 16 17 16 23 21 19 15 11 12 16 20 22 23 24 25 27 28 30 29 26 24 21 20 19 18 17 15 12 10 8 6 5 4 3 3 2 2 1 1 2 3 3 3
8 12 17 18 17 17 16 21 18 22 12 15 17 19 21 20 21 21 24 28 29 27 28 31 30 27 25 22 22 21 20 17 14 13 11 9 7 6 4 3 2 2 2 3 3 4 4 4 3
11 15 16 19 16 14 10 14 14 16 4 5 6 9 14 19 20 25 25 27 28 29 28 31 31 29 26 24 23 21 19 17 16 13 12 10 9 7 5 4 4 4 4 3 3 4 4 3 3
11 16 16 2 4 6 7 14 12 6 6 8 11 13 13 15 21 24 25 26 28 29 31 33 33 31 29 26 25 22 21 19 16 15 14 12 10 8 8 6 5 4 4 3 2 3 3 3 3
14 13 15 15 10 11 11 13 3 8 12 18 17 18 17 17 17 23 27 27 28 31 31 34 35 33 30 28 26 25 23 20 19 16 15 13 12 10 9 8 8 6 4 3 2 2 3 3 2
15 14 12 12 4 8 14 18 18 27 24 20 21 21 21 21 23 19 24 27 27 31 30 33 35 34 32 30 29 26 24 21 19 17 16 14 13 11 10 9 8 7 6 4 2 2 3 2 1
20 21 21 19 17 20 22 24 20 20 23 22 24 25 25 24 23 18 21 26 28 31 32 36 38 37 36 33 30 26 24 22 20 19 17 15 14 13 12 11 9 7 6 3 1 2 3 3 1
19 22 23 21 16 14 18 25 22 24 27 28 26 26 24 22 22 16 19 25 29 32 34 37 36 37 36 30 25 23 22 21 19 20 19 18 16 14 12 11 9 7 5 2 1 1 2 3 2
19 21 21 24 19 21 24 32 19 7 1 10 12 13 14 13 15 16 17 22 26 32 35 36 37 38 35 29 26 23 20 20 20 20 20 19 16 14 13 11 10 8 5 3 2 1 0 1 4
24 16 16 18 16 18 11 17 16 16 17 6 8 10 10 11 11 11 16 21 25 28 29 33 35 36 32 30 28 30 27 23 19 19 20 19 17 16 14 12 10 8 6 4 2 1 1 1 1
29 17 18 18 20 19 24 13 15 2 9 11 7 11 13 14 15 12 12 16 20 23 28 31 33 34 34 36 30 30 24 21 21 20 21 20 19 17 14 11 9 7 4 3 1 1 3 3 3
10 9 14 13 12 16 24 17 19 13 4 3 8 11 14 15 16 12 5 8 13 19 24 28 33 34 34 37 31 30 28 28 24 22 21 19 17 15 14 11 9 7 5 4 3 3 3 3 2
9 8 8 10 12 16 11 11 17 8 6 8 8 11 13 15 14 12 8 3 8 14 18 23 28 30 29 30 28 28 30 28 25 22 18 17 14 14 14 11 9 8 7 5 4 3 1 1 2
18 20 10 15 15 16 10 10 4 11 8 6 7 9 10 11 11 9 5 4 6 10 16 20 23 26 27 29 29 32 31 26 25 20 19 17 14 14 13 11 9 7 5 4 3 2 1 1 1
10 11 17 23 24 16 16 5 9 7 3 2 4 5 7 7 9 9 7 3 3 6 12 17 21 25 31 34 36 34 29 27 24 22 19 16 15 14 12 9 8 6 5 4 2 0 1 1 1
15 6 7 8 10 25 20 23 17 11 7 6 4 3 5 4 5 5 5 3 1 5 9 14 19 25 35 35 33 31 30 28 26 25 21 20 19 16 9 8 8 5 2 2 2 2 1 1 1
5 5 3 6 5 5 7 8 4 8 7 3 3 5 6 5 3 3 3 1 3 6 10 13 16 26 30 31 32 31 29 26 23 22 21 18 14 11 9 7 7 7 5 3 3 2 3 3 2
17 21 15 6 5 4 6 4 3 4 3 6 5 5 5 6 4 1 1 2 7 10 12 13 18 25 26 27 28 30 30 27 22 18 15 14 10 8 9 13 10 6 5 5 4 4 3 3 2
Wind_Direction
336 327 338 230 239 240 227 166 35 197 254 5 251 232 240 314 206 7 144 167 168 160 170 176 177 176 175 175 177 178 180 186 192 195 190 183 179 175 171 167 166 166 169 166 159 167 189 198 202
336 323 225 242 256 235 194 139 173 5 326 258 205 220 219 213 134 129 144 162 161 158 163 174 177 180 178 180 183 185 191 196 198 201 200 199 195 187 188 188 185 194 193 196 207 212 213 222 237
317 284 258 251 258 256 291 190 290 330 230 206 200 229 228 136 174 155 164 160 159 160 161 177 183 183 184 187 192 197 199 201 204 207 207 207 210 202 198 203 204 209 221 209 221 235 236 242 253
259 236 216 241 247 228 271 303 327 290 228 225 226 200 161 160 172 171 161 158 168 169 176 180 182 184 187 188 194 195 198 202 207 208 209 209 210 209 213 211 212 214 214 224 228 234 238 241 247
240 238 255 245 250 260 240 299 326 298 279 217 208 190 177 175 158 172 172 169 173 175 178 179 181 185 186 190 190 194 197 203 209 209 209 212 210 208 212 222 225 229 236 243 246 247 249 248 249
234 262 240 252 219 240 243 313 315 304 283 228 230 224 164 183 178 178 176 176 176 180 180 178 181 186 188 189 190 191 196 203 209 213 216 220 219 226 229 230 235 238 241 247 252 253 255 258 259
259 249 266 277 262 255 231 260 297 330 301 224 238 230 149 182 192 181 178 175 183 190 182 180 184 186 186 187 188 191 196 204 211 215 216 218 226 239 242 245 248 253 254 254 255 261 262 258 257
252 268 267 252 265 263 162 262 304 289 22 248 213 240 211 205 190 180 175 185 189 187 185 185 188 187 187 187 188 188 192 199 204 206 210 220 222 233 248 255 256 258 256 257 257 257 259 262 266
227 245 253 260 255 261 210 265 146 298 265 219 222 243 165 169 191 185 186 188 192 189 188 188 188 190 189 189 187 187 192 194 195 197 198 203 210 222 242 265 265 271 280 274 270 266 264 264 264
239 244 262 321 288 280 288 283 310 259 222 242 245 227 183 185 195 192 193 192 189 188 189 193 193 193 188 191 187 190 187 187 185 179 180 184 191 207 248 277 282 286 290 293 292 289 281 268 271
239 255 280 255 271 275 277 275 280 271 257 256 263 259 205 198 200 206 203 204 194 192 196 196 195 194 193 193 188 185 183 180 178 176 178 181 185 191 216 245 265 295 306 311 321 325 318 309 291
260 257 267 273 255 250 257 285 278 274 265 286 279 265 216 212 213 211 213 206 202 197 202 202 199 197 197 194 187 185 181 180 181 184 184 184 187 194 193 203 215 228 253 291 345 349 355 345 331
253 269 269 266 261 261 270 261 268 268 271 267 262 255 233 226 223 219 216 212 208 201 200 201 201 199 200 194 188 185 184 186 188 187 186 188 193 197 200 197 201 186 164 125 74 51 38 29 3
298 281 272 270 264 266 264 269 261 264 270 269 257 257 255 247 238 226 215 215 210 203 200 202 201 202 201 195 192 190 190 190 190 191 191 191 194 186 181 177 170 139 121 104 85 62 44 26 10
267 275 274 267 256 257 254 252 229 259 264 248 250 267 264 251 243 231 226 219 213 206 200 204 202 203 201 198 195 193 194 195 197 198 195 193 190 185 176 166 161 148 121 94 72 54 31 11 349
260 263 270 213 202 198 242 267 259 160 213 253 277 286 281 265 248 238 229 222 214 206 201 203 204 204 200 197 197 198 199 200 199 199 196 194 193 190 185 180 174 162 139 108 66 43 25 359 343
233 268 262 266 235 275 231 282 285 196 264 284 275 275 278 272 259 240 229 224 213 206 201 202 204 203 199 199 198 199 200 198 199 199 199 196 189 186 181 178 177 168 148 125 86 45 35 15 11
265 254 253 261 252 258 267 262 271 278 280 270 269 266 262 263 264 251 229 219 211 206 201 201 204 202 200 199 200 198 196 198 199 198 199 195 191 187 182 180 175 165 159 153 133 29 13 15 71
281 281 271 272 278 282 274 274 273 277 275 271 269 265 260 254 254 246 227 215 206 204 199 201 203 202 200 197 194 192 192 194 195 198 197 194 191 187 183 181 177 171 167 160 119 39 22 13 82
266 270 272 283 277 276 280 279 285 279 265 267 267 262 257 254 244 236 217 209 206 203 200 202 200 203 201 196 189 190 190 190 193 196 197 199 197 193 190 188 185 183 179 165 117 33 15 358 43
247 259 275 276 287 281 284 282 274 194 154 265 248 256 270 275 266 245 224 215 209 207 203 200 199 203 198 190 184 180 177 180 185 191 195 197 197 193 191 190 188 187 188 201 229 292 11 41 359
258 241 252 267 272 276 286 285 288 284 280 236 55 19 344 330 315 270 237 224 217 212 207 201 199 200 194 189 187 191 190 186 187 187 195 195 196 195 195 193 190 192 197 211 214 204 205 150 93
260 274 276 262 267 276 259 259 287 223 201 212 23 353 343 339 332 314 259 235 224 213 208 202 198 196 194 196 194 192 184 182 182 186 193 194 194 193 192 189 188 191 197 197 198 190 172 178 173
269 244 241 250 252 252 255 241 271 270 311 7 359 344 346 345 345 344 304 242 225 212 206 201 199 197 196 202 195 191 184 183 182 187 185 185 187 187 188 187 187 187 185 180 174 170 166 156 150
230 226 244 235 218 245 279 251 235 149 41 4 351 355 360 353 355 348 340 284 215 207 207 204 202 198 197 193 191 187 191 200 196 190 179 181 179 180 184 184 186 191 189 178 171 163 137 58 61
229 223 225 244 247 261 264 240 244 108 97 71 37 20 14 6 352 339 334 310 256 225 211 205 203 195 190 187 185 193 201 194 188 170 189 182 184 189 191 190 194 196 176 153 166 120 66 356 36
215 228 251 257 268 268 251 215 166 163 121 136 47 15 2 2 0 343 335 316 231 227 218 206 195 192 198 197 197 197 197 196 190 191 196 200 202 203 194 196 201 194 180 174 123 225 240 261 317
254 294 221 218 237 245 240 244 256 163 168 179 214 340 347 350 18 354 345 335 218 185 193 189 190 192 200 200 198 196 194 192 190 186 189 191 192 190 195 210 209 191 207 212 221 235 258 263 271
317 267 320 304 259 252 262 262 95 164 179 247 269 318 299 294 322 348 337 1 148 157 168 171 177 193 194 193 193 191 188 184 178 181 182 185 182 177 200 224 231 221 215 213 202 198 201 205 216
258 265 263 243 285 266 286 253 181 223 283 277 280 313 275 262 266 254 152 162 157 156 151 159 171 184 186 185 184 182 182 184 180 179 193 203 186 204 242 229 216 205 203 204 189 192 186 163 165